Starlink 35732

operational
NORAD ID: 67037 Int'l Des: 2025-294 Owner: SPXS Country: US Constellation: starlink
NOTLE

About Starlink 35732

Description loading...

Live Position

Loading 3D Globe...

Upcoming Passes

Altitude History

Altitude vs Time

uPlot chart will show altitude changes over time

Two-Line Element Set

1 67037U 25294H 26013.07519528 .00027399 00000-0 66061-3 0 9996
2 67037 42.9982 355.6227 0001140 263.5178 96.5549 15.40709205 6251
Epoch: Jan 13, 2026 • Age: 15 hours

Current Status

Altitude 443.9 km
Velocity 7.65 km/s
Sub-Earth Point -2.27°S, 172.34°E
Launch Date Dec 11, 2025
Age 32 days
Type internet

Technical Details

Classification Payload
Mass 575.00 kg
Dry Mass 530.00 kg
Total Mass 575.00 kg
Length 0.30 m
Diameter 4.10 m
Span 29.00 m
Shape Box + pan
Manufacturer SPXS
Bus Type Starlink V2MO
Phase Status In Orbit
Owner/State SPXS/US

Large Constellations

Loading constellations...